Weather History for KLAR - February, 2012

Change the Weather History Date:

Saturday, February 11, 2012

  Actual Average Record
Temperature  
Mean Temperature 17 °F 22 °F  
Max Temperature 27 °F 34 °F 60 °F (1962)
Min Temperature 7 °F 11 °F -16 °F (1963)
Degree Days  
Heating Degree Days 48 42  
Month to date heating degree days 500 472  
Since 1 July heating degree days 5353 5487  
Cooling Degree Days 0 0  
Month to date cooling degree days 0 0  
Year to date cooling degree days 0 0  
Moisture  
Dew Point 11 °F    
Average Humidity 79    
Maximum Humidity 84    
Minimum Humidity 73    
Precipitation  
Precipitation T in 0.01 in 0.37 in (1994)
Month to date precipitation 0.06 0.12  
Year to date precipitation 0.22 0.39  
Sea Level Pressure  
Sea Level Pressure 30.16 in    
Wind  
Wind Speed 13 mph (SSE)    
Max Wind Speed 25 mph    
Max Gust Speed 29 mph    
Visibility 7 miles    
Events Snow    
T = Trace of Precipitation, MM = Missing Value Source: NWS Daily Summary

Daily Weather History Graph

Daily Weather History Graph

Search for Another Location

Airport or City:

Trip Planner

Search our weather history database for the weather conditions in past years. The results will help you decide how hot, cold, wet, or windy it might be!

Date:

Astronomy

Feb. 11, 2012 Rise Set
Actual Time 7:03 AM MST 5:31 PM MST
Civil Twilight 6:34 AM MST 5:59 PM MST
Nautical Twilight 6:02 AM MST 6:32 PM MST
Astronomical Twilight 5:30 AM MST 7:04 PM MST
Moon 10:26 PM MST (2/11) 8:43 AM MST (2/11)
Length of Visible Light 11h 25m
Length of Day
10h 27m
Waning Gibbous, 81% of the Moon is Illuminated
Feb 11
Waning Gibbous
Feb 14
Last Quarter
Feb 21
New
Feb 29
First Quarter
Mar 8
Full

Hourly Weather History & Observations

Time (MST) Temp. Windchill Dew Point Humidity Pressure Visibility Wind Dir Wind Speed Gust Speed Precip Events Conditions
12:04 AM 14.0 °F -2.0 °F 10.4 °F 86% 30.10 in 2.5 mi SSE 16.1 mph - 0.00 in Snow Light Snow
12:12 AM 14.0 °F -3.0 °F 10.4 °F 86% 30.10 in 3.0 mi SE 18.4 mph - 0.00 in Snow Light Snow
12:29 AM 12.2 °F -5.8 °F 8.6 °F 85% 30.10 in 2.5 mi SSE 19.6 mph 24.2 mph 0.00 in Snow Light Snow
12:44 AM 12.2 °F -5.8 °F 8.6 °F 85% 30.10 in 2.5 mi SSE 19.6 mph - 0.00 in Snow Light Snow
12:53 AM 12.0 °F -6.9 °F 7.0 °F 80% 30.20 in 2.0 mi SSE 21.9 mph 27.6 mph 0.00 in Snow Light Snow
1:05 AM 10.4 °F -9.5 °F 6.8 °F 85% 30.10 in 1.8 mi SSE 23.0 mph - 0.00 in Snow Light Snow
1:15 AM 10.4 °F -9.1 °F 6.8 °F 85% 30.10 in 2.5 mi SE 21.9 mph 28.8 mph 0.00 in Snow Light Snow
1:27 AM 10.4 °F -9.1 °F 6.8 °F 85% 30.10 in 1.8 mi SE 21.9 mph - 0.00 in Snow Light Snow
1:46 AM 10.4 °F -8.6 °F 6.8 °F 85% 30.11 in 1.8 mi SSE 20.7 mph - 0.00 in Snow Light Snow
1:53 AM 10.0 °F -8.6 °F 6.1 °F 84% 30.23 in 2.0 mi SSE 19.6 mph - 0.00 in Snow Light Snow
2:01 AM 10.4 °F -9.5 °F 6.8 °F 85% 30.11 in 1.8 mi SSE 23.0 mph - 0.00 in Snow Light Snow
2:17 AM 8.6 °F -11.0 °F 5.0 °F 85% 30.11 in 1.5 mi SSE 20.7 mph - 0.00 in Snow Light Snow
2:53 AM 9.0 °F -10.5 °F 5.0 °F 84% 30.25 in 1.5 mi SSE 20.7 mph - 0.00 in Snow Light Snow
3:14 AM 8.6 °F -10.5 °F 5.0 °F 85% 30.11 in 2.0 mi SSE 19.6 mph - 0.00 in Snow Light Snow
3:36 AM 8.6 °F -10.0 °F 3.2 °F 79% 30.11 in 4.0 mi SSE 18.4 mph - 0.00 in Snow Light Snow
3:53 AM 9.0 °F -9.5 °F 5.0 °F 84% 30.27 in 4.0 mi SSE 18.4 mph - 0.00 in Snow Light Snow
4:53 AM 9.0 °F -7.9 °F 3.9 °F 80% 30.26 in 9.0 mi South 15.0 mph - 0.00 in   Overcast
5:53 AM 7.0 °F -8.3 °F 1.9 °F 80% 30.28 in 10.0 mi South 11.5 mph - N/A   Mostly Cloudy
6:12 AM 8.6 °F -5.5 °F 3.2 °F 79% 30.10 in 10.0 mi South 10.4 mph - N/A   Overcast
6:35 AM 8.6 °F -3.7 °F 5.0 °F 85% 30.10 in 10.0 mi South 8.1 mph - N/A   Overcast
6:53 AM 10.9 °F -0.8 °F 6.1 °F 81% 30.28 in 10.0 mi SSW 8.1 mph - N/A   Overcast
7:53 AM 12.0 °F -1.3 °F 7.0 °F 80% 30.27 in 10.0 mi SSW 10.4 mph - N/A   Overcast
8:53 AM 12.9 °F 0.7 °F 8.1 °F 81% 30.29 in 10.0 mi South 9.2 mph - N/A   Overcast
9:31 AM 15.8 °F 4.2 °F 10.4 °F 79% 30.11 in 10.0 mi South 9.2 mph - N/A   Overcast
9:53 AM 17.1 °F 6.6 °F 12.0 °F 81% 30.27 in 10.0 mi South 8.1 mph - N/A   Overcast
10:30 AM 17.6 °F 6.4 °F 12.2 °F 79% 30.12 in 10.0 mi South 9.2 mph - N/A   Mostly Cloudy
10:53 AM 19.0 °F 7.5 °F 12.9 °F 77% 30.27 in 10.0 mi South 10.4 mph - N/A   Mostly Cloudy
11:49 AM 21.2 °F 10.9 °F 14.0 °F 74% 30.10 in 10.0 mi South 9.2 mph - N/A   Overcast
11:53 AM 21.0 °F 9.3 °F 15.1 °F 78% 30.25 in 10.0 mi South 11.5 mph - N/A   Overcast
12:40 PM 24.8 °F - 17.6 °F 74% 30.07 in 10.0 mi North - - N/A   Scattered Clouds
12:53 PM 24.1 °F 14.4 °F 17.1 °F 75% 30.22 in 10.0 mi South 9.2 mph - N/A   Scattered Clouds
1:53 PM 26.1 °F 14.0 °F 19.0 °F 75% 30.19 in 10.0 mi SSE 15.0 mph - N/A   Mostly Cloudy
2:53 PM 26.1 °F 13.1 °F 19.0 °F 75% 30.19 in 10.0 mi SSE 17.3 mph - N/A   Overcast
3:53 PM 26.1 °F 12.7 °F 19.9 °F 78% 30.20 in 5.0 mi SSE 18.4 mph - 0.00 in Snow Light Snow
4:53 PM 26.1 °F 13.6 °F 19.0 °F 75% 30.19 in 10.0 mi SSE 16.1 mph - 0.00 in   Overcast
5:53 PM 21.9 °F 10.4 °F 18.0 °F 85% 30.19 in 10.0 mi SSE 11.5 mph - N/A   Partly Cloudy
6:53 PM 21.0 °F 7.6 °F 16.0 °F 81% 30.18 in 10.0 mi South 15.0 mph - N/A   Partly Cloudy
7:53 PM 19.0 °F 6.1 °F 14.0 °F 81% 30.17 in 10.0 mi SSE 12.7 mph - N/A   Overcast
8:53 PM 19.9 °F 9.3 °F 15.1 °F 81% 30.14 in 10.0 mi South 9.2 mph - N/A   Overcast
9:53 PM 21.0 °F 12.4 °F 16.0 °F 81% 30.11 in 10.0 mi South 6.9 mph - N/A   Overcast
10:53 PM 21.9 °F 9.2 °F 16.0 °F 78% 30.06 in 10.0 mi South 13.8 mph - N/A   Mostly Cloudy
11:53 PM 14.0 °F 1.2 °F 10.9 °F 88% 30.08 in 10.0 mi SW 10.4 mph - N/A   Clear